GFSWCAN_250_spd_021.txt.gz
Wind_Speed
143 130 107 96 89 84 74 69 67 63 59 55 50 47 44 43 40 40 38 41 43 49 55 52 52 55 65 74 81 86 90 90 90 89 88 83 81 80 75 70 70 66 70 71 74 79 85 92 96 97 94 90 87 85
113 105 94 82 78 71 64 62 58 54 50 46 42 40 39 37 35 33 34 36 40 47 42 42 45 50 57 66 72 78 83 89 89 88 86 83 82 77 72 73 71 62 64 63 50 56 80 89 93 95 94 91 89 89
88 87 77 71 65 61 57 53 50 47 43 40 37 35 33 31 29 27 27 29 34 35 35 41 43 45 52 60 62 66 76 85 86 86 85 78 79 73 64 63 63 59 64 60 60 66 66 85 89 94 93 91 87 87
79 72 65 59 55 52 49 47 44 40 37 35 31 27 25 23 21 21 22 24 25 28 34 37 40 45 48 54 63 68 75 84 87 86 82 78 73 73 69 56 53 57 62 56 67 57 48 71 84 87 92 90 86 84
67 61 55 50 47 45 43 41 37 33 31 27 24 21 18 17 15 15 17 19 22 27 32 35 40 44 47 52 57 63 73 77 82 82 81 77 74 73 66 57 54 55 53 60 53 55 45 47 62 85 89 86 84 83
54 50 46 43 41 38 37 32 29 25 22 20 16 12 10 10 10 12 15 18 23 26 30 35 39 43 46 51 56 65 71 74 77 82 82 75 75 70 57 53 49 49 53 61 66 57 50 51 44 51 76 89 84 80
46 42 40 37 34 32 28 24 21 18 16 13 8 3 4 7 10 13 17 21 25 28 33 38 41 44 48 53 60 68 69 67 80 82 81 77 72 60 57 55 54 61 66 60 61 65 54 53 51 51 65 71 82 83
43 39 35 31 28 24 21 18 15 13 10 8 5 2 6 10 14 18 22 25 29 33 38 40 42 46 50 57 68 82 84 78 77 81 76 72 56 57 54 54 53 67 73 74 69 72 74 72 58 45 50 58 59 68
40 34 29 26 22 19 15 12 10 8 7 7 6 8 11 14 18 21 23 27 32 36 38 40 43 47 55 62 68 73 79 73 70 65 67 61 57 56 50 53 55 66 80 70 73 75 75 74 67 69 64 66 56 58
35 30 25 22 18 14 11 8 8 8 8 7 8 10 11 15 18 20 25 28 31 36 41 43 46 51 57 65 72 73 77 79 76 68 64 61 55 56 49 49 48 58 83 80 79 75 70 70 74 77 73 68 71 74
33 28 24 20 16 13 10 9 8 8 9 10 12 14 15 16 17 19 23 26 29 31 36 41 47 52 57 62 65 71 70 72 75 71 60 57 58 57 54 53 57 65 88 89 82 69 81 81 76 70 72 71 69 68
30 26 23 20 16 14 12 11 10 9 10 11 14 17 18 20 22 23 23 25 29 35 38 42 46 53 57 62 64 73 72 68 66 67 61 57 65 64 61 64 63 61 84 93 91 86 84 78 79 77 74 69 67 69
28 27 24 21 18 16 14 14 13 12 12 13 14 17 18 20 23 22 25 29 32 36 39 41 46 50 55 61 66 69 70 63 59 60 61 65 64 60 63 63 66 64 62 83 86 71 68 74 77 83 80 71 77 76
28 27 25 23 21 18 17 16 15 13 13 13 15 18 20 21 22 23 25 26 27 29 33 40 46 50 51 52 57 63 61 57 51 57 62 60 56 55 56 59 57 56 65 67 66 86 77 74 76 79 76 67 64 64
28 27 25 24 22 21 20 19 18 17 14 14 15 17 22 22 23 24 24 24 24 27 31 34 38 44 49 54 56 52 52 51 53 56 60 57 55 52 60 53 49 51 55 59 57 57 56 56 58 62 64 65 63 64
28 28 26 23 23 23 24 25 24 23 20 17 14 15 15 19 23 24 24 25 27 29 31 31 36 41 45 47 49 49 50 50 48 48 52 55 54 56 56 58 55 52 50 49 46 48 50 52 53 55 56 57 59 60
28 27 25 24 22 20 20 22 23 15 17 21 21 21 20 18 20 24 26 26 28 30 33 35 36 41 42 41 40 42 43 44 43 43 48 54 60 63 60 59 60 58 60 60 58 55 53 54 55 54 54 53 54 56
28 26 24 24 22 22 21 19 18 20 18 19 19 20 21 21 22 24 27 28 30 31 34 35 35 38 39 39 38 37 36 32 35 36 40 49 54 56 65 71 68 66 64 61 61 63 61 59 58 60 60 60 63 65
31 29 27 25 24 24 23 21 19 21 22 22 21 21 21 22 23 24 27 29 30 32 33 35 34 34 33 32 31 31 31 29 28 28 34 44 52 52 54 61 61 64 55 51 55 55 56 58 63 67 70 69 65 64
35 32 32 31 29 28 27 26 23 23 24 24 25 23 22 22 23 24 25 28 30 31 32 34 33 30 29 29 29 27 25 27 27 30 36 42 47 52 55 57 60 61 58 56 56 56 54 56 58 60 63 65 67 67
41 36 34 33 33 31 29 27 25 25 25 25 25 24 22 21 21 21 22 25 26 26 28 29 28 28 27 24 21 19 20 20 20 27 34 38 40 41 43 47 52 54 56 57 56 56 56 57 60 63 64 66 66 67
47 44 40 36 34 34 34 31 28 26 26 25 24 24 23 21 20 19 18 20 21 22 24 27 27 24 22 21 19 19 20 20 23 25 24 26 31 37 41 45 48 51 54 57 61 62 62 62 62 62 63 63 63 63
47 47 45 42 40 37 36 35 34 31 29 27 25 23 21 19 17 16 15 14 14 14 15 18 21 22 22 21 20 20 22 23 24 26 29 32 35 39 43 45 47 49 52 54 56 58 60 62 64 65 67 69 71 73
39 41 44 43 42 42 42 40 37 33 30 30 29 26 24 22 19 17 15 12 10 7 8 9 12 13 15 16 18 19 22 24 26 29 32 34 37 40 43 45 47 49 52 54 57 58 60 61 63 63 63 64 63 61
38 34 35 36 39 39 41 41 41 40 38 36 34 31 27 24 22 19 15 12 10 8 7 7 8 10 12 14 16 19 21 23 26 28 30 33 35 37 39 40 42 43 44 46 48 48 48 48 48 48 48 48 48 47
33 31 33 35 36 36 36 36 36 35 34 34 33 32 30 29 28 26 22 19 14 10 7 5 3 3 5 8 9 11 13 15 17 19 20 22 23 24 26 28 29 31 33 35 37 38 38 40 41 43 44 46 47 48
25 26 28 30 29 29 30 29 30 29 28 27 25 22 20 18 17 15 13 11 10 8 6 4 2 1 3 6 9 12 14 15 16 17 19 20 22 24 27 29 31 33 35 38 40 42 44 45 46 48 50 52 53 55
24 23 23 23 23 22 21 21 21 22 21 21 19 18 17 16 16 15 14 12 9 7 6 6 7 9 12 15 18 20 21 23 25 27 29 30 32 35 38 40 42 44 46 49 51 52 53 54 56 57 59 61 62 64
26 26 26 24 22 20 19 18 17 16 15 15 16 17 16 16 15 14 15 17 19 21 23 23 24 24 25 27 29 31 32 34 36 39 41 44 46 47 49 52 54 55 56 57 57 59 60 61 61 62 63 65 65 66
26 26 25 24 24 23 21 19 19 19 20 20 20 22 22 20 21 22 21 22 20 17 22 25 26 31 36 37 37 37 39 41 43 44 46 51 55 57 59 58 58 58 58 58 59 59 60 61 62 63 65 66 67 68
30 27 25 22 20 18 17 16 15 15 17 20 23 27 28 29 25 22 25 27 25 18 15 16 21 27 32 36 38 41 45 48 50 50 52 54 57 60 61 62 64 65 65 65 64 63 63 62 62 61 60 59 58 58
32 31 31 31 30 27 25 23 22 21 20 19 21 22 27 29 29 28 28 28 26 27 26 25 26 26 27 29 32 38 45 49 53 54 58 59 56 54 53 53 53 54 54 54 54 53 53 54 53 54 54 54 53 52
35 35 34 34 35 35 34 33 32 30 29 27 26 26 28 30 30 31 31 32 33 34 35 37 38 39 39 40 40 41 41 41 41 41 43 43 44 45 45 46 47 48 49 50 51 52 53 53 52 52 52 51 50 49

GFSWCAN_250_spd_024.txt.gz
Wind_Speed
118 113 100 96 90 81 72 66 61 59 54 51 48 45 41 39 36 36 34 34 38 45 43 46 48 51 56 60 67 72 84 99 103 101 97 94 90 87 81 75 75 73 70 68 68 64 64 65 70 81 88 93 96 95
103 96 86 81 73 66 61 57 52 49 47 46 43 39 36 34 31 30 28 29 32 36 31 38 43 46 49 52 56 61 68 84 96 97 92 89 86 79 76 74 74 75 70 70 66 62 57 61 69 72 80 81 90 96
89 81 74 69 64 58 53 49 46 45 43 41 36 33 30 28 26 24 23 24 27 25 30 35 38 42 46 50 54 60 65 73 86 92 86 85 83 80 72 75 75 71 68 69 73 62 56 56 61 64 66 70 77 88
77 69 63 58 54 50 47 44 42 39 35 31 27 25 22 20 18 17 16 17 20 23 27 30 32 36 41 47 51 53 55 65 80 85 83 81 80 75 69 69 67 63 67 64 66 64 52 51 54 56 60 64 70 78
65 59 54 50 47 43 39 36 33 29 26 22 19 17 15 12 10 11 12 15 19 21 23 26 32 35 40 45 47 49 54 62 75 81 79 79 75 74 72 67 62 62 61 65 62 58 44 42 43 45 49 60 66 70
61 55 50 46 41 36 32 28 25 22 18 16 12 7 3 5 8 10 13 15 18 21 26 30 31 34 38 40 43 45 52 62 72 78 79 71 72 75 71 71 67 62 59 54 48 41 49 37 35 35 39 47 56 67
57 50 46 41 36 31 26 23 20 16 12 9 6 3 2 6 9 12 14 17 20 24 27 30 32 34 37 39 42 48 53 62 69 76 75 76 72 77 74 65 63 68 67 59 37 40 56 34 26 31 39 38 40 45
51 46 41 37 31 27 22 18 14 11 10 8 7 5 5 8 11 14 18 22 24 27 30 33 35 36 37 41 46 50 59 64 67 71 72 76 73 72 67 64 61 60 60 51 40 38 52 48 37 24 27 37 41 38
47 42 37 33 28 24 19 15 13 11 10 10 10 10 10 12 15 18 21 25 28 32 32 36 37 40 42 46 53 58 60 65 67 68 73 73 72 64 62 63 62 57 50 41 36 37 51 54 52 46 59 56 45 35
44 37 33 31 27 22 19 17 14 13 12 13 12 12 12 14 17 19 24 24 27 29 36 39 41 47 50 53 56 58 61 63 63 59 58 55 60 62 62 63 62 47 45 47 56 50 58 58 55 64 54 57 50 49
40 35 31 28 26 22 20 17 16 14 14 14 14 15 15 17 19 21 25 28 31 34 37 43 50 56 62 67 68 67 60 58 61 60 60 61 57 57 59 62 50 43 49 57 68 60 67 62 57 65 62 61 55 55
37 33 30 29 26 23 20 18 17 16 15 15 16 17 18 20 22 24 25 25 29 35 40 46 54 60 69 73 69 63 59 57 67 64 59 56 59 61 57 41 42 48 54 62 80 77 72 77 56 76 76 70 59 60
35 32 30 29 28 26 23 22 21 19 16 17 19 20 21 22 22 23 27 29 32 34 40 45 55 67 73 70 72 67 57 56 52 54 63 57 61 58 58 53 44 45 53 58 73 76 76 76 73 64 65 64 75 72
33 30 27 26 25 23 24 22 22 21 20 16 19 22 23 23 23 23 26 30 34 35 39 49 59 72 74 72 70 70 63 56 58 55 54 56 54 56 59 57 54 55 52 58 63 77 82 82 83 78 80 77 77 74
31 28 28 26 22 21 21 22 24 22 20 19 17 19 24 25 27 26 25 24 27 34 42 49 56 62 67 68 67 68 62 59 53 59 58 61 58 57 58 59 58 61 54 51 54 56 66 79 77 68 75 77 74 80
30 27 25 24 24 24 21 22 19 16 20 23 19 18 22 25 27 26 26 27 28 32 33 36 44 51 55 63 66 65 68 68 62 54 48 48 50 49 55 65 65 60 56 58 59 57 58 64 79 85 84 87 79 75
28 26 25 24 23 24 23 22 17 15 21 22 20 19 21 23 25 26 27 28 28 28 29 32 35 39 42 51 59 56 52 52 57 56 59 62 58 52 51 56 59 61 59 63 60 60 65 64 61 65 83 98 91 87
29 26 25 24 24 24 23 21 20 21 21 22 21 20 20 21 24 26 28 28 27 28 28 29 30 32 35 39 44 54 50 47 39 38 42 47 55 54 53 57 62 64 62 64 65 67 61 59 60 60 54 50 56 62
31 28 27 25 25 25 22 22 22 23 22 22 21 20 20 22 24 25 26 25 25 27 26 24 24 25 28 29 31 36 37 42 41 36 38 43 47 53 55 55 58 56 58 64 66 58 62 64 59 60 60 58 58 59
33 30 28 27 27 26 25 24 23 24 24 23 23 23 22 22 22 22 21 22 22 23 24 23 21 22 23 25 26 28 32 35 37 40 39 40 43 47 55 60 61 61 60 63 62 66 70 69 65 68 68 67 67 67
36 34 31 30 29 29 28 27 25 25 26 26 25 24 23 22 21 20 18 19 19 18 18 19 20 21 23 24 26 27 30 32 33 34 32 32 33 37 42 48 55 59 64 68 68 69 72 74 72 73 70 68 63 62
41 39 35 33 32 30 30 29 29 28 27 27 26 25 24 22 21 19 17 17 17 17 16 15 15 15 16 17 19 20 21 23 24 26 29 32 33 37 39 41 44 52 61 66 63 62 61 62 65 68 73 75 78 78
39 41 42 39 36 34 32 30 29 28 27 26 24 23 22 21 19 18 18 17 17 18 17 16 15 15 15 16 17 17 18 22 25 26 28 31 35 39 42 45 47 49 52 57 61 63 65 66 69 71 73 73 73 75
32 38 40 39 40 40 38 36 33 31 28 24 22 21 21 19 18 16 15 14 14 13 15 17 19 21 21 22 24 26 26 27 29 31 33 35 37 39 42 45 49 53 56 59 62 63 64 66 67 68 70 71 72 75
32 31 31 32 34 35 36 35 35 34 31 29 28 24 19 15 12 10 8 7 7 9 11 13 16 18 20 22 24 26 27 29 31 33 35 37 39 41 43 45 47 49 51 54 55 57 59 61 63 64 66 66 67 67
26 25 25 26 27 28 28 28 28 27 27 27 26 25 21 18 15 12 9 6 3 2 5 7 11 14 18 21 24 27 30 31 33 34 36 37 40 41 43 45 47 48 50 51 52 54 55 56 57 58 60 60 60 60
22 22 23 23 22 23 23 23 23 22 21 20 18 17 16 15 14 13 12 12 11 10 11 12 14 15 17 19 22 24 26 27 29 31 33 35 37 38 40 42 45 46 46 48 50 51 53 53 54 55 56 56 56 55
22 22 22 22 21 21 20 19 18 17 17 18 19 20 18 17 18 18 19 19 19 19 19 19 21 24 26 29 30 32 34 35 36 38 39 40 42 43 45 45 47 49 51 52 55 55 57 58 59 60 59 61 62 63
22 21 20 20 20 19 19 18 19 20 20 21 22 22 22 20 20 20 20 21 22 22 22 24 29 33 35 38 39 40 42 42 45 47 48 49 50 50 52 54 55 56 57 56 54 57 57 56 56 57 58 59 59 59
25 23 24 24 24 24 24 24 24 25 25 24 24 23 21 21 20 21 21 22 22 23 22 24 29 33 37 40 41 42 44 46 46 46 47 50 51 53 55 56 56 57 56 57 57 55 54 58 58 58 58 59 58 57
26 27 29 29 28 27 26 25 24 24 24 23 20 18 22 25 27 26 26 26 27 27 27 29 30 30 29 32 35 36 39 43 46 46 47 48 50 52 55 56 58 59 58 57 57 57 57 57 58 57 56 55 55 56
35 33 31 30 29 28 28 27 26 26 26 26 26 25 25 26 28 27 28 29 30 32 33 34 34 35 35 36 37 38 39 40 39 39 40 41 42 43 45 46 47 48 49 50 51 51 52 52 52 51 51 50 50 50
36 36 34 31 30 29 30 31 32 31 30 31 33 33 33 33 33 33 32 32 31 32 35 36 37 38 39 38 37 36 35 35 36 35 35 37 38 40 40 40 41 42 42 42 43 43 43 43 42 42 41 40 39 38

GFSWCAN_250_spd_030.txt.gz
Wind_Speed
122 118 111 100 92 86 79 72 65 61 56 52 48 45 42 41 39 39 39 37 39 39 32 43 38 38 39 41 43 45 49 53 60 65 73 87 86 97 105 107 110 105 101 88 80 78 72 65 63 61 61 57 53 52
117 104 96 88 81 73 65 59 57 51 45 40 37 35 33 32 31 31 32 31 31 29 34 32 33 33 34 35 37 42 46 45 52 61 68 63 69 82 87 96 91 94 93 84 76 62 62 59 50 60 60 59 61 57
103 93 86 76 67 61 55 51 48 41 35 32 29 27 26 24 22 21 21 21 22 24 23 24 26 26 27 30 34 38 39 42 48 56 64 54 66 80 82 88 91 90 86 79 73 64 61 56 59 55 59 58 60 55
93 84 75 66 59 52 49 44 38 33 29 26 25 24 22 20 17 14 12 12 14 16 17 17 18 20 21 26 30 32 36 41 47 51 53 53 60 67 75 77 82 80 71 65 59 58 56 54 57 58 63 60 56 53
85 76 66 59 54 49 44 39 34 30 28 26 24 21 20 16 11 7 4 6 8 10 12 14 15 18 21 25 26 31 35 39 44 47 49 56 60 67 72 71 72 72 67 63 59 55 55 55 58 63 63 62 59 58
78 68 59 55 52 47 40 35 32 30 27 24 20 17 15 12 9 6 6 3 4 7 12 16 19 20 23 27 30 33 38 41 46 49 56 61 66 73 72 68 72 68 65 62 58 53 45 45 50 57 61 60 58 56
70 61 55 52 50 43 36 30 28 27 25 22 18 15 14 12 11 10 11 11 12 14 16 18 22 25 26 29 32 37 41 42 45 49 55 61 67 70 68 62 66 67 61 63 57 45 47 62 70 66 46 40 52 54
63 55 51 50 46 39 32 28 27 25 23 21 19 17 15 15 13 13 15 16 16 19 19 23 25 26 30 34 36 38 42 44 49 54 64 70 74 73 67 59 63 67 54 55 45 53 59 53 61 51 48 44 47 47
60 53 49 46 41 34 29 27 24 24 23 23 22 20 18 18 16 17 18 18 18 20 24 30 31 33 35 38 41 44 45 49 53 58 63 66 71 68 67 58 51 59 65 65 63 52 56 61 61 55 46 49 39 38
56 49 45 42 36 31 26 25 24 23 23 23 22 19 19 19 20 21 23 26 24 24 27 34 37 38 39 42 45 47 51 59 62 62 62 71 69 71 72 69 58 72 73 76 74 68 58 57 55 45 52 37 31 30
52 47 42 38 31 28 25 25 22 19 19 20 23 21 22 22 22 25 29 32 35 40 42 47 45 42 41 42 44 47 53 58 63 56 47 62 70 74 69 75 64 66 73 70 72 69 57 55 53 54 51 42 39 37
50 45 40 32 28 26 21 23 22 20 19 19 21 23 23 23 22 29 36 39 43 50 54 57 51 47 46 47 51 53 54 57 56 59 51 63 67 74 74 73 78 69 71 75 73 71 60 59 52 51 44 44 45 41
46 41 35 30 26 22 21 22 21 19 18 19 20 25 26 26 32 36 43 47 53 56 56 58 60 57 53 55 56 58 53 54 62 58 56 54 59 75 73 79 83 81 81 77 73 71 67 63 62 63 60 49 47 46
42 38 32 29 21 19 19 18 20 18 18 18 19 24 23 27 33 45 46 52 54 59 61 61 57 57 56 58 60 56 49 57 62 56 56 56 53 52 60 65 71 72 77 76 78 77 74 74 70 65 62 51 54 56
39 36 31 24 20 19 17 18 18 18 17 20 22 19 15 19 28 38 47 56 58 58 56 57 61 62 60 63 63 55 42 57 56 51 52 56 50 53 53 53 54 60 68 71 72 72 72 67 56 48 53 52 53 55
37 33 28 23 21 18 17 17 17 16 17 19 21 19 15 16 26 36 43 51 59 59 57 62 62 57 61 64 50 50 43 51 53 48 48 50 51 52 52 53 55 57 55 55 60 62 63 60 58 52 46 50 57 59
34 31 27 24 22 19 16 16 17 17 16 15 17 19 22 21 21 28 42 49 53 57 58 60 59 60 61 57 52 50 46 43 48 49 43 43 45 42 43 50 56 53 51 50 49 52 52 54 54 55 58 56 58 59
32 31 28 25 23 20 17 17 17 19 19 17 15 16 18 21 25 30 46 53 55 56 57 61 57 51 63 60 55 47 45 46 44 47 50 53 54 48 40 41 44 44 50 54 56 49 45 48 51 58 64 65 64 66
32 32 30 27 26 23 19 20 19 21 21 20 18 15 16 20 22 28 39 53 54 55 53 56 56 51 51 60 60 56 51 52 51 49 49 48 53 57 54 54 54 55 56 55 51 51 53 50 52 54 62 73 73 72
33 33 31 30 30 27 24 22 21 22 21 20 20 19 16 17 22 25 32 49 46 52 53 53 53 51 54 55 58 62 62 60 57 57 58 57 54 56 50 46 47 53 58 57 59 60 62 57 56 62 62 64 70 76
36 35 33 33 32 30 28 26 23 20 21 18 17 18 19 15 15 19 27 49 45 49 45 44 44 52 53 51 51 58 57 57 54 52 55 62 59 55 58 59 60 59 64 64 67 68 70 70 67 69 69 71 74 75
31 33 35 35 35 32 28 24 20 19 19 19 18 15 16 17 17 18 21 24 47 51 45 48 45 47 52 50 53 50 51 50 49 46 48 48 48 50 53 56 55 56 53 61 69 70 67 67 67 73 81 86 86 86
26 25 28 31 33 31 30 29 25 21 18 16 14 12 10 9 10 11 12 17 21 30 43 49 50 47 51 51 53 55 55 54 55 62 59 57 58 62 66 66 66 63 62 64 63 65 73 77 82 81 78 84 90 94
20 21 25 26 24 23 23 22 22 22 22 18 14 11 8 5 2 2 5 9 13 16 19 23 27 35 44 46 48 54 58 60 60 61 67 70 69 68 71 74 72 70 74 76 74 77 80 79 78 78 77 78 77 80
21 21 21 21 19 19 18 15 15 15 14 13 11 9 8 4 1 3 7 11 14 16 19 21 24 28 31 33 36 39 42 45 48 50 53 55 56 60 62 65 67 67 73 73 72 72 74 77 77 76 78 78 80 80
20 21 23 23 23 22 19 19 18 17 13 12 10 10 12 12 11 11 12 13 14 16 19 21 24 28 31 35 37 41 43 46 49 51 53 55 55 61 64 65 66 68 71 71 75 78 77 77 77 78 79 79 80 81
23 24 24 28 27 26 25 23 21 20 21 21 20 18 15 15 16 16 16 17 18 20 21 23 26 28 31 33 34 38 40 41 44 46 47 47 50 54 60 59 57 61 62 62 65 67 68 71 74 74 74 74 75 75
30 29 28 29 29 27 25 23 22 23 23 24 25 25 24 24 24 24 24 24 22 22 23 24 26 27 30 32 33 36 39 39 41 43 41 40 42 46 51 54 55 56 55 53 57 59 60 63 65 66 68 69 71 71
29 38 41 37 29 28 27 26 26 27 28 28 28 29 29 29 29 29 28 26 25 23 24 27 30 31 31 32 32 33 38 40 39 40 40 41 41 42 43 45 47 48 50 51 51 53 56 59 59 60 61 63 64 66
27 12 11 27 30 29 28 28 28 29 30 33 35 36 37 36 34 32 31 29 29 30 31 34 38 40 37 34 32 31 33 33 33 35 36 39 41 41 40 39 39 40 41 42 43 43 44 47 49 51 53 53 54 54
31 31 32 34 37 40 39 37 35 35 36 37 40 41 40 37 34 34 33 30 29 30 34 36 33 31 30 29 28 28 29 30 30 31 32 33 35 35 36 36 36 35 36 36 37 38 39 40 40 41 42 43 44 43
31 33 35 37 39 40 42 42 39 39 38 37 38 39 40 39 37 33 30 29 30 33 37 36 33 31 29 27 27 26 27 27 26 26 27 28 29 29 29 30 30 31 32 33 34 35 36 37 37 37 37 38 38 38
35 35 35 36 39 40 41 42 42 41 40 39 38 39 40 40 41 40 35 33 33 34 38 38 36 33 30 28 28 28 27 26 27 27 27 26 27 29 29 29 29 29 30 31 32 32 33 33 33 33 33 32 32 32

GFSWCAN_250_spd_033.txt.gz
Wind_Speed
116 113 105 93 85 77 71 66 59 54 50 48 47 44 39 36 35 33 32 29 31 33 28 37 35 32 34 36 39 45 45 53 60 65 73 83 92 102 111 118 125 135 129 120 114 106 97 91 92 98 88 61 67 66
114 106 93 85 77 69 63 56 49 46 45 43 39 35 32 30 28 26 24 23 24 25 27 25 26 27 28 30 30 31 36 40 45 54 63 74 79 80 90 104 114 118 121 120 112 106 100 98 96 93 82 65 70 67
109 95 87 78 69 62 56 50 47 43 39 35 31 28 26 24 21 18 15 14 15 15 16 16 18 21 24 25 25 30 30 34 43 50 56 63 67 73 80 90 100 107 112 115 107 104 98 92 91 82 72 74 69 55
99 90 81 71 62 56 52 48 42 39 36 32 29 27 25 22 16 10 6 5 5 8 9 12 14 16 18 21 24 25 27 34 39 45 49 57 60 67 76 82 88 93 97 97 97 105 102 91 85 82 78 63 49 42
92 84 74 65 58 53 49 44 39 35 32 30 27 24 23 21 16 12 7 4 1 3 8 11 12 14 16 19 20 23 25 29 35 39 44 48 50 59 75 76 79 83 87 82 91 91 80 79 57 55 61 40 48 53
88 79 70 61 55 51 46 40 36 33 31 30 27 25 24 22 19 14 12 9 6 5 4 6 8 9 12 18 22 23 25 26 30 35 38 43 47 48 52 61 68 74 69 67 67 71 70 60 37 36 46 44 50 49
82 74 63 56 51 47 41 35 32 31 30 30 30 28 27 23 19 17 16 14 11 11 11 11 13 17 16 20 25 26 27 27 31 35 38 39 41 45 49 55 61 57 55 56 56 58 57 49 44 40 46 37 42 45
77 69 59 52 47 43 35 33 30 28 27 29 29 29 28 24 24 24 22 20 18 17 17 18 20 22 24 28 30 31 33 33 35 35 36 42 47 54 56 55 56 57 57 56 60 51 46 46 46 46 34 36 50 56
71 63 54 47 42 38 32 29 28 25 25 25 27 27 27 26 28 25 26 28 28 26 26 25 24 26 32 37 38 37 38 38 39 41 43 44 48 49 49 51 59 55 52 50 51 54 56 55 51 46 60 53 54 51
67 56 48 43 38 33 29 26 25 25 24 25 23 26 26 25 28 29 32 36 38 39 35 33 33 35 39 45 42 40 39 39 44 46 49 53 50 46 47 54 49 42 45 49 52 58 58 59 58 54 59 53 58 50
62 51 45 40 34 28 24 24 23 21 23 25 27 25 28 31 37 44 46 47 48 44 39 36 39 40 40 43 45 44 49 56 62 61 62 56 52 53 47 51 56 58 57 50 54 57 57 54 59 61 61 54 45 44
56 46 40 35 30 25 22 21 20 19 22 22 25 33 39 38 41 46 48 48 48 47 43 42 39 37 40 42 43 44 52 64 67 61 51 46 48 50 51 55 55 60 58 54 55 57 58 63 52 48 54 56 53 55
48 42 36 32 27 24 21 19 18 14 18 14 18 31 39 35 46 46 47 45 42 43 42 41 37 36 34 41 45 43 48 58 65 56 52 51 41 53 58 53 54 55 56 55 59 56 62 59 55 45 46 50 58 57
44 37 33 29 26 22 19 19 15 12 13 12 21 30 35 28 39 40 41 42 41 39 39 41 41 36 38 49 51 52 47 41 58 52 48 48 46 52 60 62 62 65 61 56 52 55 63 65 59 54 53 49 48 51
40 35 31 27 23 22 19 18 15 10 10 14 16 28 33 28 36 38 41 39 39 35 36 38 43 41 35 48 51 48 48 41 42 44 46 40 45 55 63 68 67 65 66 63 53 57 59 60 63 61 62 52 52 52
37 32 30 28 24 20 19 18 16 11 11 14 14 21 26 28 30 37 35 34 36 36 38 37 46 40 36 40 44 40 40 38 40 48 48 46 46 48 56 62 68 67 68 63 61 59 63 60 62 60 61 59 59 58
36 32 30 27 23 21 20 18 17 18 15 10 10 11 23 22 27 31 37 29 28 38 39 43 46 38 40 44 42 46 36 35 38 39 45 50 49 46 50 51 64 65 68 68 63 59 63 65 66 61 62 63 67 65
34 32 30 28 26 23 20 20 18 18 15 12 9 8 12 12 22 30 24 33 30 38 40 45 41 37 36 36 39 42 44 40 36 39 44 49 51 51 49 54 72 73 73 69 73 73 69 67 67 70 62 62 61 59
37 32 29 29 27 23 22 23 20 19 16 15 11 5 5 8 10 25 24 32 31 42 40 45 40 38 35 37 37 41 44 46 44 44 43 46 47 49 50 52 54 50 52 58 63 64 64 65 65 66 61 66 71 72
36 35 32 29 26 24 25 24 22 16 17 16 13 10 5 11 16 20 30 36 34 43 37 42 44 42 37 39 40 39 41 47 50 49 49 47 48 50 51 50 53 56 61 63 63 64 63 63 60 59 61 63 64 66
30 32 33 30 29 29 28 24 20 18 17 16 14 11 11 5 8 16 27 32 29 41 47 47 52 48 48 43 42 41 44 46 51 57 58 58 57 53 52 52 53 52 48 47 50 52 56 59 59 60 62 66 68 69
31 31 27 26 27 26 25 23 21 19 18 14 10 10 8 5 4 4 12 28 37 32 39 47 51 56 59 55 50 51 52 53 53 56 60 60 60 58 57 61 61 59 58 59 65 66 67 71 72 72 73 76 75 72
27 26 26 25 25 23 22 22 21 19 17 14 13 8 4 1 3 6 10 13 19 34 42 40 48 51 48 50 55 62 65 63 62 64 63 63 63 59 63 64 64 64 69 68 62 65 72 76 77 76 77 82 80 80
26 26 25 26 24 22 17 16 17 18 17 16 13 11 9 7 6 8 12 16 20 24 30 40 48 50 57 58 56 53 59 62 66 64 64 67 67 67 63 65 67 67 67 66 66 67 68 71 71 72 78 85 85 83
33 38 40 36 33 29 27 27 23 18 16 15 18 19 20 20 17 15 15 16 16 19 23 27 32 39 49 59 64 65 62 62 65 70 70 69 72 77 76 71 74 79 77 79 82 80 79 78 79 82 81 83 86 87
25 35 44 49 43 33 28 26 26 26 25 23 22 19 18 20 22 23 22 22 22 24 25 26 26 27 30 34 39 47 50 53 55 61 66 69 74 78 76 76 78 75 70 72 76 75 76 77 78 78 78 79 77 78
23 27 30 42 44 32 28 25 25 25 26 26 25 25 25 25 24 23 22 22 21 23 24 26 27 26 30 33 32 37 42 40 43 42 43 46 51 56 57 57 59 60 59 59 59 59 61 64 66 68 70 71 69 69
9 10 27 31 31 31 29 28 29 31 31 32 33 34 34 33 31 30 28 26 25 22 21 24 25 24 25 29 32 36 39 38 40 38 39 41 43 46 48 49 51 52 52 53 55 56 56 57 58 57 58 59 61 62
12 16 22 25 31 33 33 32 32 34 34 33 34 36 39 40 38 38 37 32 27 26 27 28 30 33 31 31 29 30 30 31 32 33 33 34 35 37 38 40 41 42 42 43 45 48 48 50 52 52 52 53 53 54
25 26 30 31 34 36 39 39 38 38 38 39 39 40 42 43 41 40 39 37 34 32 31 32 36 37 33 30 28 28 27 28 30 32 33 33 32 32 32 33 34 35 36 37 37 39 41 42 43 44 45 45 46 46
31 32 33 35 37 39 40 38 39 39 38 38 37 36 40 40 39 39 37 35 31 30 29 30 31 32 31 29 26 25 26 27 28 29 30 31 31 31 32 33 33 34 35 36 37 37 38 38 39 39 39 39 39 38
34 38 40 39 38 38 38 38 36 38 38 39 41 41 41 44 46 43 42 41 37 33 31 31 32 32 31 29 28 26 27 28 28 27 28 30 31 32 31 31 32 32 33 34 35 36 37 37 38 38 38 38 37 35
33 37 40 41 42 43 42 38 36 37 39 41 42 42 43 43 46 47 43 41 38 35 33 31 31 32 32 32 32 31 29 28 27 29 30 30 30 32 33 33 32 32 32 32 32 32 33 34 34 34 34 34 33 32